This is the latest recevied weather packets stored in our database for station/object IK2ILW-4. If no packets are shown the sender has not sent any weather packets the latest 10 day(s).
| Time | Temp. | Humidity | Pressure | Rain* | Wind** | Luminosity | Snow |
|---|---|---|---|---|---|---|---|
| 1777871851 | 10.56° C | 54% | 1019.3 hPa | 0 mm | - | 88 W/m² | - |
| 1777871571 | 11.11° C | 53% | 1019.2 hPa | 0 mm | - | 84 W/m² | - |
| 1777871266 | 11.11° C | 53% | 1019.2 hPa | 0 mm | - | 79 W/m² | - |
| 1777870961 | 10.56° C | 56% | 1019.2 hPa | 0 mm | - | 70 W/m² | - |
| 1777870658 | 11.11° C | 54% | 1019.1 hPa | 0 mm | - | 63 W/m² | - |
| 1777870355 | 11.11° C | 55% | 1019.1 hPa | 0 mm | - | 62 W/m² | - |
| 1777870058 | 10.56° C | 55% | 1019.1 hPa | 0 mm | - | 58 W/m² | - |
| 1777869754 | 10.56° C | 54% | 1019.1 hPa | 0 mm | - | 53 W/m² | - |
| 1777869454 | 10.56° C | 54% | 1019.1 hPa | 0 mm | - | 47 W/m² | - |
| 1777869169 | 10.56° C | 53% | 1019.1 hPa | 0 mm | - | 42 W/m² | - |
| 1777868865 | 11.11° C | 53% | 1019.1 hPa | 0 mm | - | 32 W/m² | - |
| 1777868562 | 10.56° C | 53% | 1019.1 hPa | 0 mm | - | 19 W/m² | - |
| 1777868260 | 10.56° C | 53% | 1019.1 hPa | 0 mm | - | 14 W/m² | - |
| 1777867960 | 11.11° C | 54% | 1019.1 hPa | 0 mm | - | 12 W/m² | - |
| 1777867656 | 10.56° C | 53% | 1019.1 hPa | 0 mm | - | 9 W/m² | - |
| 1777867355 | 10.56° C | 54% | 1019.1 hPa | 0 mm | - | 0 W/m² | - |
| 1777867071 | 10.56° C | 54% | 1019 hPa | 0 mm | - | 0 W/m² | - |
| 1777866768 | 10.56° C | 54% | 1019 hPa | 0 mm | - | 0 W/m² | - |
| 1777866468 | 10.56° C | 54% | 1019 hPa | 0 mm | - | 0 W/m² | - |
| 1777866162 | 10.56° C | 54% | 1019.1 hPa | 0 mm | - | 0 W/m² | - |
| 1777865858 | 10.56° C | 54% | 1019.1 hPa | 0 mm | - | 0 W/m² | - |
| 1777865558 | 10.56° C | 55% | 1019.1 hPa | 0 mm | - | 0 W/m² | - |
| 1777865254 | 10.56° C | 57% | 1019.1 hPa | 0 mm | - | 0 W/m² | - |
| 1777864951 | 10.56° C | 57% | 1019.1 hPa | 0 mm | - | 0 W/m² | - |
| 1777864670 | 10.56° C | 56% | 1019.1 hPa | 0 mm | - | 0 W/m² | - |
* Rain since midnight (hover to see other rain measurements)
** Current wind speed in m/s (hover to see current wind gust speed)